Location: Clanezzo
(45.7500°N, 9.6000°E)
Time: 07:25:02
(UTC+00:00)

Gbstr 26 Del rocket - Pass Details

Date: 26 September 2021
Orbit: 492 x 1263 km, 51.8° (Epoch: 18 October)

Event Time Altitude Azimuth Distance (km) Brightness Sun altitude
Rises 21:11:24 0° 255° (WSW) 3,992 7.5 -38.5°
Reaches altitude 10° 21:14:05 10° 258° (WSW) 3,106 6.8 -38.8°
Enters shadow 21:19:09 44° 275° (W) 1,653 5.2 -39.3°
